| time (UTC) | temp F | wind direction | speed MPH | gust MPH | rain 1hr in | rain 24hr in | rain mn in | humidity % | barometer mb |
| 20260503024533 | 72 | 95 | 7.0 | 13.0 | 0.20 | 0.46 | 0.46 | 89 | 1013.8 |
| 20260503023030 | 72 | 128 | 2.0 | 4.0 | 0.17 | 0.43 | 0.43 | 89 | 1014.5 |
| 20260503021530 | 72 | 109 | 2.0 | 5.0 | 0.15 | 0.41 | 0.41 | 89 | 1014.4 |
| 20260503020031 | 72 | 193 | 3.0 | 8.0 | 0.09 | 0.33 | 0.33 | 87 | 1014.9 |
| 20260503014534 | 72 | 209 | 1.0 | 2.0 | 0.05 | 0.26 | 0.26 | 87 | 1014.7 |
| 20260503013030 | 72 | 164 | 1.0 | 5.0 | 0.06 | 0.26 | 0.26 | 86 | 1014.0 |
| 20260503011532 | 72 | 124 | 3.0 | 5.0 | 0.06 | 0.26 | 0.26 | 87 | 1014.1 |
| 20260503010034 | 72 | 105 | 2.0 | 7.0 | 0.08 | 0.24 | 0.24 | 88 | 1014.1 |
| 20260503004532 | 73 | 233 | 3.0 | 4.0 | 0.11 | 0.20 | 0.20 | 89 | 1014.6 |
| 20260503003047 | 72 | 103 | 2.0 | 4.0 | 0.13 | 0.20 | 0.20 | 89 | 1014.0 |
| 20260503001554 | 72 | 63 | 1.0 | 3.0 | 0.13 | 0.20 | 0.20 | 90 | 1013.8 |
| 20260503000038 | 73 | 300 | 2.0 | 6.0 | 0.09 | 0.16 | 0.16 | 90 | 1013.8 |
| 20260502234536 | 73 | 299 | 5.0 | 10.0 | 0.02 | 0.09 | 0.09 | 88 | 1014.3 |
| 20260502233032 | 73 | 274 | 5.0 | 10.0 | 0.06 | 0.07 | 0.07 | 87 | 1014.1 |
| 20260502231531 | 73 | 291 | 5.0 | 12.0 | 0.07 | 0.07 | 0.07 | 88 | 1013.6 |
| 20260502230036 | 72 | 304 | 8.0 | 14.0 | 0.07 | 0.07 | 0.07 | 89 | 1013.6 |
| 20260502224533 | 72 | 250 | 5.0 | 13.0 | 0.07 | 0.07 | 0.07 | 88 | 1013.3 |
| 20260502223033 | 78 | 304 | 15.0 | 25.0 | 0.00 | 0.00 | 0.00 | 76 | 1013.4 |
| 20260502221541 | 81 | 139 | 7.0 | 14.0 | 0.00 | 0.00 | 0.00 | 85 | 1012.2 |
| 20260502220037 | 81 | 200 | 6.0 | 14.0 | 0.00 | 0.00 | 0.00 | 84 | 1012.2 |
| 20260502214545 | 81 | 185 | 8.0 | 12.0 | 0.00 | 0.00 | 0.00 | 84 | 1012.3 |
| 20260502213036 | 81 | 51 | 6.0 | 13.0 | 0.00 | 0.00 | 0.00 | 83 | 1012.2 |
| 20260502211532 | 82 | 218 | 5.0 | 13.0 | 0.00 | 0.00 | 0.00 | 81 | 1011.9 |
| 20260502210030 | 82 | 160 | 6.0 | 14.0 | 0.00 | 0.00 | 0.00 | 80 | 1011.9 |
| 20260502204531 | 83 | 106 | 7.0 | 13.0 | 0.00 | 0.00 | 0.00 | 80 | 1011.8 |
| 20260502203033 | 83 | 165 | 8.0 | 16.0 | 0.00 | 0.00 | 0.00 | 77 | 1011.8 |
| 20260502201533 | 83 | 191 | 8.0 | 15.0 | 0.00 | 0.00 | 0.00 | 78 | 1011.9 |
| 20260502200032 | 84 | 232 | 9.0 | 15.0 | 0.00 | 0.00 | 0.00 | 76 | 1011.9 |
| 20260502194531 | 84 | 153 | 7.0 | 14.0 | 0.00 | 0.00 | 0.00 | 75 | 1011.8 |
| 20260502193032 | 84 | 206 | 8.0 | 12.0 | 0.00 | 0.00 | 0.00 | 76 | 1011.9 |
| 20260502191535 | 84 | 185 | 6.0 | 11.0 | 0.00 | 0.00 | 0.00 | 76 | 1012.1 |
| 20260502190041 | 84 | 76 | 9.0 | 15.0 | 0.00 | 0.00 | 0.00 | 76 | 1012.3 |
| 20260502184553 | 84 | 227 | 6.0 | 14.0 | 0.00 | 0.00 | 0.00 | 78 | 1012.7 |
| 20260502183038 | 84 | 214 | 10.0 | 16.0 | 0.00 | 0.00 | 0.00 | 78 | 1012.8 |
| 20260502181536 | 84 | 155 | 7.0 | 15.0 | 0.00 | 0.00 | 0.00 | 79 | 1012.9 |
| 20260502163044 | 83 | 110 | 8.0 | 17.0 | 0.00 | 0.00 | 0.00 | 80 | 1013.3 |
| 20260502161536 | 83 | 213 | 6.0 | 15.0 | 0.00 | 0.00 | 0.00 | 81 | 1013.1 |
| 20260502151534 | 82 | 125 | 10.0 | 20.0 | 0.00 | 0.00 | 0.00 | 83 | 1012.9 |
| 20260502123036 | 79 | 186 | 6.0 | 12.0 | 0.00 | 0.00 | 0.00 | 87 | 1012.0 |
| 20260502121535 | 78 | 179 | 5.0 | 13.0 | 0.00 | 0.00 | 0.00 | 89 | 1011.9 |
| 20260502114533 | 77 | 116 | 6.0 | 12.0 | 0.00 | 0.00 | 0.00 | 88 | 1011.8 |
| 20260502113037 | 77 | 87 | 6.0 | 9.0 | 0.00 | 0.00 | 0.00 | 88 | 1011.8 |
| 20260502111534 | 77 | 106 | 5.0 | 11.0 | 0.00 | 0.00 | 0.00 | 88 | 1011.8 |
| 20260502110038 | 77 | 125 | 4.0 | 9.0 | 0.00 | 0.00 | 0.00 | 88 | 1011.9 |
| 20260502104539 | 77 | 91 | 6.0 | 12.0 | 0.00 | 0.00 | 0.00 | 89 | 1011.8 |
| 20260502103032 | 76 | 70 | 4.0 | 10.0 | 0.00 | 0.00 | 0.00 | 90 | 1011.6 |
| 20260502101546 | 76 | 86 | 5.0 | 9.0 | 0.00 | 0.00 | 0.00 | 90 | 1011.8 |
| 20260502071534 | 75 | 149 | 1.0 | 3.0 | 0.00 | 0.00 | 0.00 | 82 | 1012.1 |
| 20260502070044 | 75 | 0 | 0.0 | 0.0 | 0.00 | 0.00 | 0.00 | 85 | 1012.2 |
| 20260502064530 | 75 | 0 | 0.0 | 0.0 | 0.00 | 0.00 | 0.00 | 87 | 1012.1 |
| 20260502063036 | 74 | 0 | 0.0 | 0.0 | 0.00 | 0.00 | 0.00 | 87 | 1012.2 |
| 20260502061533 | 74 | 0 | 0.0 | 0.0 | 0.00 | 0.00 | 0.00 | 86 | 1012.2 |
| 20260502060035 | 74 | 0 | 0.0 | 0.0 | 0.00 | 0.00 | 0.00 | 86 | 1012.2 |
| 20260502054536 | 75 | 0 | 0.0 | 0.0 | 0.00 | 0.00 | 0.00 | 84 | 1012.3 |
| 20260502053031 | 75 | 0 | 0.0 | 0.0 | 0.00 | 0.00 | 0.00 | 84 | 1012.5 |
| 20260502051534 | 75 | 0 | 0.0 | 0.0 | 0.00 | 0.00 | 0.00 | 83 | 1012.6 |
| 20260502050030 | 75 | 0 | 0.0 | 0.0 | 0.00 | 0.00 | 0.00 | 83 | 1012.8 |
| 20260502044530 | 76 | 0 | 0.0 | 0.0 | 0.00 | 0.00 | 0.00 | 83 | 1012.6 |
| 20260502043033 | 76 | 148 | 1.0 | 2.0 | 0.00 | 0.00 | 0.00 | 82 | 1012.6 |
| 20260502041539 | 76 | 195 | 1.0 | 6.0 | 0.00 | 0.00 | 0.00 | 81 | 1012.6 |
| 20260502040041 | 76 | 150 | 2.0 | 5.0 | 0.00 | 0.00 | 0.00 | 81 | 1012.8 |
| 20260502034533 | 76 | 126 | 2.0 | 5.0 | 0.00 | 0.00 | 0.00 | 80 | 1012.8 |
| 20260502033034 | 76 | 111 | 2.0 | 5.0 | 0.00 | 0.00 | 0.00 | 80 | 1012.9 |
| 20260502031532 | 76 | 110 | 1.0 | 4.0 | 0.00 | 0.00 | 0.00 | 79 | 1012.9 |
| 20260502030044 | 76 | 161 | 3.0 | 6.0 | 0.00 | 0.00 | 0.00 | 79 | 1013.1 |